Weather History for KJLN - October, 2013

Change the Weather History Date:

Sunday, October 20, 2013

  Actual Average Record
Temperature  
Mean Temperature 57 °F 59 °F  
Max Temperature 69 °F 70 °F 89 °F (1979)
Min Temperature 45 °F 47 °F 24 °F (1989)
Degree Days  
Heating Degree Days 8 7  
Month to date heating degree days 127 111  
Since 1 July heating degree days 138 153  
Cooling Degree Days 0 1  
Month to date cooling degree days 51 38  
Year to date cooling degree days 1572 1680  
Growing Degree Days 7 (Base 50)    
Moisture  
Dew Point 39 °F    
Average Humidity 55    
Maximum Humidity 80    
Minimum Humidity 30    
Precipitation  
Precipitation 0.00 in 0.14 in 4.35 in (1983)
Month to date precipitation 1.52 2.61  
Year to date precipitation 36.98 38.53  
Sea Level Pressure  
Sea Level Pressure 29.94 in    
Wind  
Wind Speed 11 mph (South)    
Max Wind Speed 22 mph    
Max Gust Speed 28 mph    
Visibility 10 miles    
Events Rain    
T = Trace of Precipitation, MM = Missing Value Source: NWS Daily Summary

Daily Weather History Graph

Daily Weather History Graph

Search for Another Location

Airport or City:

Trip Planner

Search our weather history database for the weather conditions in past years. The results will help you decide how hot, cold, wet, or windy it might be!

Date:

Astronomy

Oct. 20, 2013 Rise Set
Actual Time 7:30 AM CDT 6:34 PM CDT
Civil Twilight 7:04 AM CDT 7:00 PM CDT
Nautical Twilight 6:34 AM CDT 7:30 PM CDT
Astronomical Twilight 6:03 AM CDT 8:00 PM CDT
Moon 7:46 PM CDT (10/20) 9:06 AM CDT (10/20)
Length of Visible Light 11h 56m
Length of Day
11h 03m
Full, 97% of the Moon is Illuminated
Oct 20
Full
Oct 26
Last Quarter
Nov 3
New
Nov 9
First Quarter
Nov 17
Full

Hourly Weather History & Observations

Time (CDT) Temp. Windchill Dew Point Humidity Pressure Visibility Wind Dir Wind Speed Gust Speed Precip Events Conditions
12:53 AM 48.0 °F - 37.9 °F 68% 30.00 in 10.0 mi South 11.5 mph - N/A   Clear
1:53 AM 48.9 °F - 37.0 °F 64% 29.99 in 10.0 mi SSW 12.7 mph - N/A   Clear
2:53 AM 48.0 °F - 37.0 °F 66% 29.98 in 10.0 mi South 12.7 mph - N/A   Clear
3:53 AM 48.0 °F - 37.0 °F 66% 29.96 in 10.0 mi SSW 11.5 mph - N/A   Clear
4:53 AM 46.9 °F - 37.9 °F 71% 29.96 in 10.0 mi SSW 9.2 mph - N/A   Clear
5:53 AM 45.0 °F 40.1 °F 37.9 °F 76% 29.96 in 10.0 mi South 9.2 mph - N/A   Clear
6:53 AM 45.0 °F 39.7 °F 37.9 °F 76% 29.96 in 10.0 mi South 10.4 mph - N/A   Clear
7:53 AM 46.9 °F - 37.9 °F 71% 29.96 in 10.0 mi South 10.4 mph - N/A   Clear
8:53 AM 52.0 °F - 37.9 °F 59% 29.97 in 10.0 mi SSW 16.1 mph - N/A   Clear
9:53 AM 55.9 °F - 37.9 °F 51% 29.97 in 10.0 mi SSW 11.5 mph 21.9 mph 0.00 in Rain Light Rain
10:53 AM 59.0 °F - 39.9 °F 49% 29.97 in 10.0 mi SSW 13.8 mph 24.2 mph 0.00 in Rain Light Rain
11:53 AM 63.0 °F - 41.0 °F 45% 29.96 in 10.0 mi SSW 15.0 mph - 0.00 in   Clear
1:53 PM 68.0 °F - 39.0 °F 35% 29.90 in 10.0 mi SSW 13.8 mph 21.9 mph 0.00 in   Clear
2:53 PM 68.0 °F - 35.1 °F 30% 29.87 in 10.0 mi SSW 17.3 mph 25.3 mph N/A   Clear
3:53 PM 69.1 °F - 37.0 °F 31% 29.86 in 10.0 mi SSW 15.0 mph - N/A   Clear
4:53 PM 66.9 °F - 35.1 °F 31% 29.86 in 10.0 mi SSW 13.8 mph 24.2 mph N/A   Clear
5:53 PM 64.9 °F - 36.0 °F 34% 29.87 in 10.0 mi South 11.5 mph - N/A   Clear
6:53 PM 59.0 °F - 39.0 °F 48% 29.89 in 10.0 mi South 5.8 mph - N/A   Clear
7:53 PM 55.9 °F - 39.9 °F 55% 29.91 in 10.0 mi SSE 4.6 mph - N/A   Clear
8:53 PM 55.0 °F - 41.0 °F 59% 29.93 in 10.0 mi SSE 4.6 mph - N/A   Clear
9:53 PM 50.0 °F - 42.1 °F 74% 29.94 in 10.0 mi South 6.9 mph - N/A   Scattered Clouds
10:53 PM 50.0 °F - 42.1 °F 74% 29.95 in 10.0 mi South 6.9 mph - N/A   Clear
11:53 PM 48.9 °F - 42.1 °F 77% 29.95 in 10.0 mi South 8.1 mph - N/A   Clear